When you browse on this site, cookies collect data to enhance your experience and personalize the content and advertising you see.
Visit our Privacy Policy to learn more. By continuing to use the site, you agree to this use of cookies and data.
  • In Italy
  • List of Countries
  • For 7 days
  • Water Temperature
  • Satellite Maps
  • Weather Map
  • Weather Widgets
  • user-avatar
    Login

    Hourly Weather Volodki

    Today, 17 January, Thursday

    Time Temperature Precipitation Wind Pressure Humidity
    00:00 -10°C° 0 mm 5 mps 729 mmHg 96%
    01:00 -7°C° 0 mm 5 mps 729 mmHg 95%
    02:00 -5°C° 0 mm 6 mps 728 mmHg 95%
    03:00 -4°C° 0.1 mm 6 mps 728 mmHg 95%
    04:00 -3°C° 0.1 mm 6 mps 727 mmHg 95%
    05:00 -2°C° 0.1 mm 6 mps 727 mmHg 95%
    06:00 -2°C° 0.2 mm 6 mps 726 mmHg 94%
    07:00 -2°C° 0.2 mm 6 mps 726 mmHg 94%
    08:00 -1°C° 0 mm 5 mps 725 mmHg 93%
    09:00 -2°C° 0.1 mm 6 mps 725 mmHg 93%
    10:00 -2°C° 0.1 mm 7 mps 725 mmHg 93%
    11:00 -2°C° 0.1 mm 8 mps 724 mmHg 92%
    12:00 -2°C° 0.1 mm 8 mps 724 mmHg 92%
    13:00 -2°C° 0.1 mm 8 mps 724 mmHg 91%
    14:00 -2°C° 0.1 mm 8 mps 724 mmHg 90%
    15:00 -2°C° 0.1 mm 8 mps 724 mmHg 90%
    16:00 -2°C° 0.1 mm 8 mps 724 mmHg 90%
    17:00 -2°C° 0.1 mm 7 mps 724 mmHg 90%
    18:00 -2°C° 0.1 mm 7 mps 725 mmHg 91%
    19:00 -2°C° 0.1 mm 7 mps 725 mmHg 91%
    20:00 -2°C° 0.1 mm 6 mps 725 mmHg 92%
    21:00 -2°C° 0 mm 6 mps 726 mmHg 92%
    22:00 -2°C° 0 mm 6 mps 726 mmHg 92%
    23:00 -2°C° 0 mm 6 mps 726 mmHg 92%

    Tomorrow, 18 January, Friday

    Time Temperature Precipitation Wind Pressure Humidity
    00:00 -2°C° 0 mm 6 mps 727 mmHg 92%
    01:00 -2°C° 0 mm 5 mps 727 mmHg 92%
    02:00 -2°C° 0 mm 5 mps 727 mmHg 92%
    03:00 -2°C° 0 mm 5 mps 727 mmHg 93%
    04:00 -2°C° 0 mm 5 mps 727 mmHg 93%
    05:00 -2°C° 0 mm 5 mps 727 mmHg 94%
    06:00 -2°C° 0 mm 5 mps 727 mmHg 94%
    07:00 -2°C° 0 mm 4 mps 727 mmHg 94%
    08:00 -2°C° 0 mm 4 mps 726 mmHg 94%
    09:00 -1°C° 0.1 mm 5 mps 726 mmHg 94%
    10:00 -2°C° 0.1 mm 6 mps 726 mmHg 94%
    11:00 -2°C° 0.1 mm 7 mps 726 mmHg 94%
    12:00 -2°C° 0.1 mm 7 mps 726 mmHg 91%
    13:00 -2°C° 0.1 mm 7 mps 726 mmHg 88%
    14:00 -3°C° 0.1 mm 7 mps 726 mmHg 85%
    15:00 -5°C° 0.1 mm 8 mps 727 mmHg 87%
    16:00 -6°C° 0.1 mm 8 mps 728 mmHg 88%
    17:00 -6°C° 0.1 mm 8 mps 729 mmHg 90%
    18:00 -8°C° 0.1 mm 7 mps 730 mmHg 89%
    19:00 -9°C° 0.1 mm 6 mps 731 mmHg 89%
    20:00 -10°C° 0.1 mm 5 mps 732 mmHg 88%
    21:00 -11°C° 0 mm 5 mps 733 mmHg 90%
    22:00 -10°C° 0 mm 4 mps 734 mmHg 91%
    23:00 -10°C° 0 mm 4 mps 735 mmHg 93%

    Day after tomorrow, 19 January, Saturday

    Time Temperature Precipitation Wind Pressure Humidity
    00:00 -10°C° 0 mm 4 mps 735 mmHg 93%
    01:00 -9°C° 0 mm 4 mps 736 mmHg 93%
    02:00 -10°C° 0 mm 5 mps 736 mmHg 94%
    03:00 -9°C° 0 mm 4 mps 736 mmHg 93%
    04:00 -10°C° 0 mm 4 mps 736 mmHg 93%
    05:00 -10°C° 0 mm 4 mps 736 mmHg 93%
    06:00 -10°C° 0 mm 4 mps 737 mmHg 92%
    07:00 -10°C° 0 mm 4 mps 737 mmHg 91%
    08:00 -10°C° 0 mm 4 mps 738 mmHg 89%
    09:00 -10°C° 0 mm 5 mps 738 mmHg 89%
    10:00 -10°C° 0 mm 5 mps 738 mmHg 89%
    11:00 -8°C° 0 mm 5 mps 739 mmHg 88%
    12:00 -7°C° 0 mm 5 mps 739 mmHg 88%
    13:00 -7°C° 0 mm 5 mps 739 mmHg 87%
    14:00 -6°C° 0 mm 5 mps 739 mmHg 87%
    15:00 -7°C° 0.1 mm 5 mps 739 mmHg 87%
    16:00 -7°C° 0.1 mm 5 mps 739 mmHg 88%
    17:00 -8°C° 0.1 mm 5 mps 739 mmHg 88%
    18:00 -8°C° 0 mm 5 mps 739 mmHg 90%
    19:00 -7°C° 0 mm 5 mps 740 mmHg 91%
    20:00 -7°C° 0 mm 5 mps 740 mmHg 93%
    21:00 -7°C° 0 mm 5 mps 740 mmHg 93%
    22:00 -7°C° 0 mm 5 mps 740 mmHg 93%
    23:00 -7°C° 0 mm 5 mps 740 mmHg 94%

    20 January, Sunday

    Time Temperature Precipitation Wind Pressure Humidity
    00:00 -7°C° 0 mm 5 mps 740 mmHg 94%
    01:00 -7°C° 0 mm 5 mps 740 mmHg 94%
    02:00 -7°C° 0 mm 4 mps 740 mmHg 94%
    03:00 -8°C° 0 mm 4 mps 740 mmHg 94%
    04:00 -8°C° 0 mm 5 mps 740 mmHg 95%
    05:00 -10°C° 0 mm 5 mps 740 mmHg 95%
    06:00 -10°C° 0 mm 5 mps 739 mmHg 94%
    07:00 -10°C° 0 mm 5 mps 739 mmHg 94%
    08:00 -11°C° 0 mm 5 mps 739 mmHg 93%
    09:00 -10°C° 0 mm 5 mps 739 mmHg 92%
    10:00 -10°C° 0 mm 5 mps 739 mmHg 91%
    11:00 -9°C° 0 mm 6 mps 739 mmHg 90%
    12:00 -9°C° 0 mm 6 mps 739 mmHg 90%
    13:00 -7°C° 0 mm 5 mps 738 mmHg 89%
    14:00 -7°C° 0 mm 5 mps 738 mmHg 89%
    15:00 -8°C° 0 mm 5 mps 738 mmHg 90%
    16:00 -8°C° 0 mm 5 mps 738 mmHg 91%
    17:00 -10°C° 0 mm 5 mps 737 mmHg 92%
    18:00 -10°C° 0.1 mm 5 mps 737 mmHg 93%
    19:00 -10°C° 0.1 mm 5 mps 737 mmHg 93%
    20:00 -8°C° 0.1 mm 5 mps 737 mmHg 94%
    21:00 -8°C° 0.3 mm 4 mps 737 mmHg 94%
    22:00 -8°C° 0.3 mm 4 mps 737 mmHg 95%
    23:00 -6°C° 0.3 mm 3 mps 738 mmHg 95%

    21 January, Monday

    Time Temperature Precipitation Wind Pressure Humidity
    00:00 -8°C° 0 mm 3 mps 738 mmHg 94%
    01:00 -9°C° 0 mm 3 mps 738 mmHg 93%
    02:00 -10°C° 0 mm 3 mps 738 mmHg 92%
    03:00 -12°C° 0 mm 3 mps 738 mmHg 92%
    04:00 -13°C° 0 mm 3 mps 738 mmHg 92%
    05:00 -14°C° 0 mm 3 mps 738 mmHg 92%
    06:00 -14°C° 0 mm 3 mps 739 mmHg 93%
    07:00 -14°C° 0 mm 3 mps 739 mmHg 93%
    08:00 -14°C° 0 mm 3 mps 739 mmHg 94%
    09:00 -14°C° 0 mm 3 mps 740 mmHg 93%
    10:00 -13°C° 0 mm 3 mps 740 mmHg 92%
    11:00 -12°C° 0 mm 3 mps 740 mmHg 91%
    12:00 -11°C° 0 mm 4 mps 740 mmHg 91%
    13:00 -10°C° 0 mm 4 mps 740 mmHg 90%
    14:00 -10°C° 0 mm 4 mps 740 mmHg 90%
    15:00 -10°C° 0 mm 4 mps 740 mmHg 91%
    16:00 -11°C° 0 mm 4 mps 740 mmHg 92%
    17:00 -10°C° 0 mm 3 mps 740 mmHg 92%
    18:00 -12°C° 0 mm 3 mps 740 mmHg 93%
    19:00 -12°C° 0 mm 3 mps 740 mmHg 93%
    20:00 -12°C° 0 mm 3 mps 740 mmHg 94%
    21:00 -12°C° 0 mm 3 mps 741 mmHg 94%
    22:00 -12°C° 0 mm 3 mps 741 mmHg 95%
    23:00 -12°C° 0 mm 3 mps 741 mmHg 95%

    22 January, Tuesday

    Time Temperature Precipitation Wind Pressure Humidity
    00:00 -12°C° 0 mm 3 mps 741 mmHg 95%
    01:00 -12°C° 0 mm 3 mps 741 mmHg 95%
    02:00 -10°C° 0 mm 3 mps 741 mmHg 94%
    03:00 -10°C° 0 mm 3 mps 741 mmHg 94%
    04:00 -10°C° 0 mm 3 mps 741 mmHg 94%
    05:00 -10°C° 0 mm 3 mps 741 mmHg 94%
    06:00 -12°C° 0 mm 3 mps 741 mmHg 94%
    07:00 -12°C° 0 mm 3 mps 741 mmHg 94%
    08:00 -10°C° 0 mm 2 mps 741 mmHg 94%
    09:00 -10°C° 0 mm 2 mps 741 mmHg 94%
    10:00 -9°C° 0 mm 2 mps 741 mmHg 93%
    11:00 -9°C° 0 mm 2 mps 741 mmHg 93%
    12:00 -9°C° 0 mm 2 mps 741 mmHg 93%
    13:00 -8°C° 0 mm 2 mps 741 mmHg 92%
    14:00 -8°C° 0 mm 2 mps 741 mmHg 92%
    15:00 -8°C° 0 mm 1 mps 741 mmHg 92%
    16:00 -9°C° 0 mm 1 mps 740 mmHg 92%
    17:00 -10°C° 0 mm 1 mps 740 mmHg 92%
    18:00 -10°C° 0 mm 1 mps 740 mmHg 92%
    19:00 -10°C° 0 mm 1 mps 740 mmHg 91%
    20:00 -11°C° 0 mm 1 mps 740 mmHg 91%
    21:00 -11°C° 0 mm 1 mps 740 mmHg 90%
    22:00 -11°C° 0 mm 1 mps 740 mmHg 90%
    23:00 -11°C° 0 mm 1 mps 740 mmHg 90%
    Show more